Location: Chuathbaluk
(61.5726°N, 159.2454°W)
Time: 17:42:09
(UTC+00:00)

ZACube-1 - Pass Details

Date: 19 January 2021
Orbit: 583 x 666 km, 97.6° (Epoch: 04 March)

Event Time Altitude Azimuth Distance (km) Brightness Sun altitude
Rises 02:54:09 0° 175° (S) 2,934 ? -5.3°
Reaches altitude 10° 02:56:22 10° 180° (S) 2,041 ? -5.6°
Maximum altitude 03:00:45 56° 259° (WSW) 780 ? -6.0°
Drops below altitude 10° 03:05:17 10° 338° (NNW) 2,095 ? -6.4°
Sets 03:07:35 0° 343° (NNW) 3,018 ? -6.7°
